• In Netherlands
  • List of Countries
  • For 7 days
  • Water Temperature
  • Satellite Maps
  • Weather Map
  • Weather Widgets
  • user-avatar
    Login

    Hourly Weather Abovyan

    Today, 29 March, Wednesday

    Time Temperature Precipitation Wind Pressure Humidity
    00:00 +2°C° 0 mm 1 mps 670 mmHg 80%
    01:00 +2°C° 0 mm 1 mps 670 mmHg 81%
    02:00 +2°C° 0 mm 1 mps 670 mmHg 81%
    03:00 +2°C° 0 mm 1 mps 670 mmHg 81%
    04:00 +1°C° 0 mm 1 mps 669 mmHg 81%
    05:00 +1°C° 0 mm 1 mps 669 mmHg 82%
    06:00 0°C° 0 mm 1 mps 669 mmHg 82%
    07:00 +3°C° 0 mm 1 mps 670 mmHg 77%
    08:00 +6°C° 0 mm 1 mps 671 mmHg 72%
    09:00 +8°C° 0 mm 1 mps 671 mmHg 66%
    10:00 +8°C° 0 mm 2 mps 671 mmHg 65%
    11:00 +10°C° 0 mm 2 mps 671 mmHg 63%
    12:00 +12°C° 0 mm 2 mps 672 mmHg 62%
    13:00 +12°C° 0 mm 2 mps 672 mmHg 60%
    14:00 +12°C° 0 mm 2 mps 672 mmHg 59%
    15:00 +13°C° 0 mm 2 mps 672 mmHg 57%
    16:00 +10°C° 0 mm 2 mps 671 mmHg 60%
    17:00 +9°C° 0 mm 2 mps 671 mmHg 63%
    18:00 +8°C° 0 mm 1 mps 671 mmHg 66%
    19:00 +7°C° 0 mm 1 mps 671 mmHg 67%
    20:00 +6°C° 0 mm 1 mps 672 mmHg 69%
    21:00 +5°C° 0 mm 1 mps 672 mmHg 70%
    22:00 +4°C° 0 mm 1 mps 672 mmHg 70%
    23:00 +3°C° 0 mm 1 mps 672 mmHg 70%

    Tomorrow, 30 March, Thursday

    Time Temperature Precipitation Wind Pressure Humidity
    00:00 +3°C° 0 mm 1 mps 672 mmHg 71%
    01:00 +2°C° 0 mm 1 mps 672 mmHg 72%
    02:00 +2°C° 0 mm 1 mps 672 mmHg 73%
    03:00 0°C° 0 mm 0 mps 672 mmHg 74%
    04:00 0°C° 0 mm 0 mps 672 mmHg 74%
    05:00 +1°C° 0 mm 1 mps 672 mmHg 75%
    06:00 +1°C° 0 mm 1 mps 672 mmHg 75%
    07:00 +4°C° 0 mm 1 mps 673 mmHg 69%
    08:00 +7°C° 0 mm 1 mps 673 mmHg 64%
    09:00 +9°C° 0 mm 2 mps 674 mmHg 58%
    10:00 +10°C° 0 mm 2 mps 674 mmHg 56%
    11:00 +12°C° 0 mm 2 mps 673 mmHg 53%
    12:00 +13°C° 0 mm 2 mps 673 mmHg 51%
    13:00 +13°C° 0 mm 2 mps 672 mmHg 50%
    14:00 +14°C° 0 mm 2 mps 672 mmHg 49%
    15:00 +14°C° 0 mm 2 mps 671 mmHg 48%
    16:00 +12°C° 0 mm 2 mps 671 mmHg 51%
    17:00 +10°C° 0 mm 2 mps 671 mmHg 55%
    18:00 +8°C° 0 mm 2 mps 670 mmHg 59%
    19:00 +8°C° 0 mm 1 mps 670 mmHg 60%
    20:00 +7°C° 0 mm 1 mps 670 mmHg 62%
    21:00 +5°C° 0 mm 1 mps 670 mmHg 64%
    22:00 +5°C° 0 mm 1 mps 670 mmHg 64%
    23:00 +5°C° 0 mm 1 mps 670 mmHg 65%

    Day after tomorrow, 31 March, Friday

    Time Temperature Precipitation Wind Pressure Humidity
    00:00 +5°C° 0 mm 1 mps 670 mmHg 66%
    01:00 +4°C° 0 mm 1 mps 670 mmHg 67%
    02:00 +4°C° 0 mm 1 mps 670 mmHg 67%
    03:00 +4°C° 0 mm 1 mps 669 mmHg 68%
    04:00 +4°C° 0 mm 1 mps 669 mmHg 68%
    05:00 +4°C° 0 mm 1 mps 669 mmHg 69%
    06:00 +4°C° 0 mm 1 mps 669 mmHg 69%
    07:00 +6°C° 0 mm 1 mps 669 mmHg 64%
    08:00 +8°C° 0 mm 1 mps 669 mmHg 60%
    09:00 +10°C° 0 mm 1 mps 670 mmHg 55%
    10:00 +11°C° 0.2 mm 1 mps 669 mmHg 55%
    11:00 +12°C° 0.2 mm 1 mps 669 mmHg 54%
    12:00 +13°C° 0.2 mm 1 mps 669 mmHg 54%
    13:00 +12°C° 0.4 mm 1 mps 669 mmHg 56%
    14:00 +12°C° 0.4 mm 2 mps 669 mmHg 59%
    15:00 +12°C° 0.4 mm 2 mps 669 mmHg 61%
    16:00 +10°C° 0.4 mm 2 mps 668 mmHg 66%
    17:00 +10°C° 0.4 mm 1 mps 668 mmHg 71%
    18:00 +9°C° 0.4 mm 1 mps 668 mmHg 75%
    19:00 +9°C° 0.4 mm 1 mps 669 mmHg 77%
    20:00 +8°C° 0.4 mm 1 mps 669 mmHg 79%
    21:00 +8°C° 0.4 mm 1 mps 670 mmHg 81%
    22:00 +7°C° 0.3 mm 1 mps 670 mmHg 82%
    23:00 +7°C° 0.3 mm 1 mps 670 mmHg 84%

    1 April, Saturday

    Time Temperature Precipitation Wind Pressure Humidity
    00:00 +7°C° 0.3 mm 1 mps 670 mmHg 85%
    01:00 +6°C° 0.3 mm 1 mps 670 mmHg 85%
    02:00 +6°C° 0.3 mm 1 mps 670 mmHg 85%
    03:00 +6°C° 0.3 mm 1 mps 670 mmHg 86%
    04:00 +5°C° 0.2 mm 1 mps 670 mmHg 86%
    05:00 +5°C° 0.2 mm 1 mps 670 mmHg 87%
    06:00 +5°C° 0.2 mm 1 mps 670 mmHg 87%
    07:00 +7°C° 0.1 mm 1 mps 670 mmHg 81%
    08:00 +8°C° 0.1 mm 1 mps 671 mmHg 75%
    09:00 +10°C° 0.1 mm 1 mps 671 mmHg 69%
    10:00 +11°C° 0.1 mm 1 mps 671 mmHg 67%
    11:00 +11°C° 0.1 mm 1 mps 671 mmHg 65%
    12:00 +12°C° 0.1 mm 1 mps 671 mmHg 63%
    13:00 +12°C° 0.3 mm 1 mps 670 mmHg 64%
    14:00 +12°C° 0.3 mm 1 mps 670 mmHg 66%
    15:00 +12°C° 0.3 mm 2 mps 670 mmHg 67%
    16:00 +11°C° 0.6 mm 1 mps 670 mmHg 71%
    17:00 +10°C° 0.6 mm 1 mps 670 mmHg 75%
    18:00 +9°C° 0.6 mm 1 mps 669 mmHg 79%
    19:00 +8°C° 0.4 mm 1 mps 670 mmHg 81%
    20:00 +7°C° 0.4 mm 1 mps 670 mmHg 83%
    21:00 +7°C° 0.4 mm 1 mps 670 mmHg 85%
    22:00 +6°C° 0.3 mm 1 mps 670 mmHg 86%
    23:00 +6°C° 0.3 mm 1 mps 670 mmHg 87%

    2 April, Sunday

    Time Temperature Precipitation Wind Pressure Humidity
    00:00 +5°C° 0.3 mm 1 mps 670 mmHg 87%
    01:00 +5°C° 0.2 mm 1 mps 669 mmHg 88%
    02:00 +5°C° 0.2 mm 1 mps 669 mmHg 88%
    03:00 +4°C° 0.2 mm 0 mps 669 mmHg 88%
    04:00 +4°C° 0.3 mm 0 mps 669 mmHg 88%
    05:00 +4°C° 0.3 mm 0 mps 670 mmHg 89%
    06:00 +3°C° 0.3 mm 0 mps 670 mmHg 89%
    07:00 +5°C° 0.2 mm 0 mps 670 mmHg 82%
    08:00 +7°C° 0.2 mm 0 mps 671 mmHg 75%
    09:00 +9°C° 0.2 mm 0 mps 671 mmHg 69%
    10:00 +10°C° 0.1 mm 0 mps 671 mmHg 66%
    11:00 +11°C° 0.1 mm 0 mps 671 mmHg 64%
    12:00 +12°C° 0.1 mm 0 mps 671 mmHg 61%
    13:00 +12°C° 0.2 mm 0 mps 671 mmHg 61%
    14:00 +12°C° 0.2 mm 0 mps 671 mmHg 61%
    15:00 +12°C° 0.2 mm 0 mps 670 mmHg 61%
    16:00 +11°C° 0.2 mm 0 mps 670 mmHg 65%
    17:00 +10°C° 0.2 mm 0 mps 670 mmHg 69%
    18:00 +9°C° 0.2 mm 0 mps 670 mmHg 73%
    19:00 +9°C° 0.1 mm 1 mps 670 mmHg 75%
    20:00 +8°C° 0.1 mm 1 mps 671 mmHg 77%
    21:00 +7°C° 0.1 mm 1 mps 671 mmHg 79%
    22:00 +7°C° 0.1 mm 1 mps 671 mmHg 80%
    23:00 +6°C° 0.1 mm 1 mps 671 mmHg 82%

    3 April, Monday

    Time Temperature Precipitation Wind Pressure Humidity
    00:00 +6°C° 0.1 mm 1 mps 671 mmHg 83%
    01:00 +6°C° 0.1 mm 1 mps 672 mmHg 84%
    02:00 +6°C° 0.1 mm 1 mps 672 mmHg 84%
    03:00 +5°C° 0.1 mm 1 mps 672 mmHg 85%
    04:00 +5°C° 0.1 mm 1 mps 672 mmHg 85%
    05:00 +5°C° 0.1 mm 1 mps 672 mmHg 86%
    06:00 +4°C° 0.1 mm 1 mps 672 mmHg 87%
    07:00 +6°C° 0.1 mm 1 mps 673 mmHg 79%
    08:00 +8°C° 0.1 mm 1 mps 673 mmHg 72%
    09:00 +9°C° 0.1 mm 1 mps 674 mmHg 65%
    10:00 +10°C° 0.1 mm 1 mps 673 mmHg 62%
    11:00 +11°C° 0.1 mm 1 mps 673 mmHg 59%
    12:00 +12°C° 0.1 mm 1 mps 673 mmHg 56%
    13:00 +12°C° 0.2 mm 1 mps 673 mmHg 56%
    14:00 +12°C° 0.2 mm 1 mps 673 mmHg 56%
    15:00 +12°C° 0.2 mm 1 mps 672 mmHg 57%
    16:00 +11°C° 0.1 mm 1 mps 672 mmHg 60%
    17:00 +10°C° 0.1 mm 1 mps 672 mmHg 64%
    18:00 +9°C° 0.1 mm 1 mps 672 mmHg 68%
    19:00 +8°C° 0 mm 1 mps 672 mmHg 71%
    20:00 +7°C° 0 mm 1 mps 673 mmHg 74%
    21:00 +5°C° 0 mm 1 mps 673 mmHg 77%
    22:00 +5°C° 0 mm 1 mps 673 mmHg 78%
    23:00 +4°C° 0 mm 1 mps 673 mmHg 79%
    Show more